Lander, WY

2:16 AM MDT on September 22, 2017 (GMT -0600)
Hunt

Weather History for KLND - March, 2014

Change the Weather History Date:

Monday, March 24, 2014

  Actual Average Record
Temperature  
Mean Temperature 35 °F 38 °F  
Max Temperature 45 °F 50 °F 70 °F (2012)
Min Temperature 25 °F 26 °F -7 °F (1965)
Degree Days  
Heating Degree Days 30 27  
Month to date heating degree days 719 734  
Since 1 July heating degree days 6455 6438  
Cooling Degree Days 0 0  
Month to date cooling degree days 0 0  
Year to date cooling degree days 0 0  
Moisture  
Dew Point 22 °F    
Average Humidity 69    
Maximum Humidity 100    
Minimum Humidity 38    
Precipitation  
Precipitation 0.01 in 0.04 in 0.83 in (1959)
Month to date precipitation 0.82 0.83  
Year to date precipitation 1.62 1.82  
Snow  
Snow 0.20 in 0.60 in - ()
Month to date snowfall 11.3 11.9  
Since 1 July snowfall 66.6 65.5  
Snow Depth 0.00 in    
Sea Level Pressure  
Sea Level Pressure 30.21 in    
Wind  
Wind Speed 6 mph (NNE)    
Max Wind Speed 14 mph    
Max Gust Speed 17 mph    
Visibility 8 miles    
Events Snow    
T = Trace of Precipitation, MM = Missing Value Source: NWS Daily Summary

Daily Weather History Graph

Daily Weather History Graph

Search for Another Location

Airport or City:

Trip Planner

Search our weather history database for the weather conditions in past years. The results will help you decide how hot, cold, wet, or windy it might be!

Date:

Astronomy

Mar. 24, 2014 Rise Set
Actual Time 7:11 AM MDT 7:31 PM MDT
Civil Twilight 6:42 AM MDT 8:00 PM MDT
Nautical Twilight 6:09 AM MDT 8:33 PM MDT
Astronomical Twilight 5:35 AM MDT 9:07 PM MDT
Moon 2:51 AM MDT (3/24) 12:53 PM MDT (3/24)
Length of Visible Light 13h 17m
Length of Day
12h 20m
Last Quarter, 42% of the Moon is Illuminated
Mar 24
Last Quarter
Mar 30
New
Apr 7
First Quarter
Apr 15
Full
Apr 22
Last Quarter

Hourly Weather History & Observations

Time (MDT) Temp. Windchill Dew Point Humidity Pressure Visibility Wind Dir Wind Speed Gust Speed Precip Events Conditions
12:53 AM 27.0 °F 19.5 °F 21.0 °F 78% 30.14 in 10.0 mi NNW 6.9 mph - N/A   Mostly Cloudy
1:44 AM 27.0 °F 20.5 °F 21.9 °F 81% 30.13 in 10.0 mi NW 5.8 mph - N/A   Overcast
1:53 AM 27.0 °F 19.5 °F 21.9 °F 81% 30.14 in 10.0 mi NNW 6.9 mph - N/A   Overcast
2:53 AM 27.0 °F 18.7 °F 23.0 °F 85% 30.16 in 6.0 mi NNW 8.1 mph - 0.00 in   Overcast
3:13 AM 26.1 °F 18.4 °F 24.1 °F 92% 30.15 in 7.0 mi NNW 6.9 mph - N/A   Overcast
3:22 AM 26.1 °F 20.5 °F 24.1 °F 92% 30.15 in 1.8 mi NNW 4.6 mph - 0.00 in Snow Light Snow
3:38 AM 26.1 °F 18.4 °F 25.0 °F 96% 30.15 in 1.5 mi NNW 6.9 mph - 0.00 in Snow Light Snow
3:53 AM 25.0 °F 18.1 °F 24.1 °F 96% 30.17 in 1.8 mi NNW 5.8 mph - 0.01 in Snow Light Snow
4:02 AM 25.0 °F 19.3 °F 24.1 °F 96% 30.15 in 2.5 mi NNW 4.6 mph - 0.00 in Snow Light Snow
4:09 AM 25.0 °F 19.3 °F 24.1 °F 96% 30.15 in 4.0 mi NNW 4.6 mph - 0.00 in Snow Light Snow
4:22 AM 25.0 °F 18.1 °F 24.1 °F 96% 30.15 in 7.0 mi North 5.8 mph - 0.00 in   Overcast
4:41 AM 26.1 °F 21.9 °F 24.1 °F 92% 30.16 in 10.0 mi NNE 3.5 mph - 0.00 in   Overcast
4:53 AM 25.0 °F 20.7 °F 24.1 °F 96% 30.19 in 10.0 mi North 3.5 mph - 0.00 in   Overcast
5:53 AM 25.0 °F 18.1 °F 24.1 °F 96% 30.22 in 10.0 mi NW 5.8 mph - N/A   Overcast
6:53 AM 25.0 °F - 24.1 °F 96% 30.24 in 10.0 mi Calm Calm - N/A   Overcast
7:53 AM 25.0 °F 20.7 °F 24.1 °F 96% 30.29 in 9.0 mi ENE 3.5 mph - N/A   Overcast
8:53 AM 26.1 °F 21.9 °F 23.0 °F 88% 30.30 in 10.0 mi South 3.5 mph - N/A   Overcast
9:49 AM 28.4 °F - 24.8 °F 86% 30.22 in 10.0 mi Calm Calm - N/A   Partly Cloudy
9:53 AM 28.0 °F 24.2 °F 24.1 °F 85% 30.31 in 10.0 mi ESE 3.5 mph - N/A   Partly Cloudy
10:53 AM 33.1 °F 30.0 °F 26.1 °F 75% 30.29 in 10.0 mi ESE 3.5 mph - N/A   Partly Cloudy
11:53 AM 37.9 °F 32.1 °F 21.0 °F 51% 30.27 in 10.0 mi East 8.1 mph - N/A   Clear
12:53 PM 39.0 °F 35.7 °F 19.0 °F 45% 30.24 in 10.0 mi Variable 4.6 mph - N/A   Clear
1:53 PM 41.0 °F 38.0 °F 17.1 °F 38% 30.21 in 10.0 mi Variable 4.6 mph - N/A   Clear
2:53 PM 43.0 °F 37.2 °F 19.0 °F 38% 30.18 in 10.0 mi ENE 10.4 mph - N/A   Clear
3:53 PM 43.0 °F 38.8 °F 19.0 °F 38% 30.18 in 10.0 mi Variable 6.9 mph - N/A   Clear
4:53 PM 43.0 °F 36.4 °F 21.9 °F 43% 30.18 in 10.0 mi East 12.7 mph - N/A   Clear
5:53 PM 41.0 °F 37.1 °F 21.0 °F 45% 30.19 in 10.0 mi Variable 5.8 mph - N/A   Clear
6:53 PM 37.9 °F 32.1 °F 21.9 °F 53% 30.20 in 10.0 mi ENE 8.1 mph - N/A   Clear
7:53 PM 33.1 °F 27.7 °F 23.0 °F 66% 30.26 in 10.0 mi NNE 5.8 mph - N/A   Clear
8:53 PM 32.0 °F 28.7 °F 21.0 °F 64% 30.29 in 10.0 mi NE 3.5 mph - N/A   Clear
9:53 PM 28.9 °F 21.1 °F 19.0 °F 67% 30.31 in 10.0 mi East 8.1 mph - N/A   Clear
10:53 PM 28.9 °F - 19.0 °F 67% 30.30 in 10.0 mi Calm Calm - N/A   Clear
11:53 PM 26.1 °F 19.4 °F 19.9 °F 78% 30.28 in 10.0 mi WSW 5.8 mph - N/A   Clear